TimeCST,TemperatureF,Dew PointF,Humidity,Sea Level PressureIn,VisibilityMPH,Wind Direction,Wind SpeedMPH,Gust SpeedMPH,PrecipitationIn,Events,Conditions,WindDirDegrees,DateUTC
12:29 AM,57.2,53.6,88,29.92,5.0,NNW,6.9,-,0.05,Rain,Heavy Rain,340,2012-11-06 06:29:00
12:56 AM,55.9,55.9,100,29.90,4.0,NW,5.8,-,0.13,Rain,Heavy Rain,320,2012-11-06 06:56:00
1:56 AM,55.9,55.0,97,29.90,10.0,North,5.8,-,0.00,,Mostly Cloudy,350,2012-11-06 07:56:00
2:41 AM,53.6,53.6,100,29.90,10.0,North,5.8,-,N/A,,Partly Cloudy,350,2012-11-06 08:41:00
2:56 AM,53.1,53.1,100,29.91,10.0,North,5.8,-,N/A,,Partly Cloudy,350,2012-11-06 08:56:00
3:56 AM,52.0,51.1,97,29.93,10.0,NNW,8.1,-,N/A,,Clear,340,2012-11-06 09:56:00
4:56 AM,51.1,50.0,96,29.93,10.0,North,8.1,-,N/A,,Clear,350,2012-11-06 10:56:00
5:17 AM,50.0,50.0,100,29.94,9.0,NNW,4.6,-,N/A,,Partly Cloudy,340,2012-11-06 11:17:00
5:31 AM,50.0,50.0,100,29.94,10.0,North,8.1,-,N/A,,Mostly Cloudy,350,2012-11-06 11:31:00
5:56 AM,50.0,48.9,96,29.97,10.0,NNW,9.2,-,N/A,,Overcast,340,2012-11-06 11:56:00
6:13 AM,50.0,48.2,94,29.97,4.0,North,11.5,-,N/A,,Overcast,350,2012-11-06 12:13:00
6:56 AM,50.0,48.9,96,29.99,6.0,North,8.1,-,N/A,,Overcast,360,2012-11-06 12:56:00
7:35 AM,51.8,50.0,94,29.99,10.0,North,9.2,-,N/A,,Overcast,360,2012-11-06 13:35:00
7:56 AM,51.1,50.0,96,30.00,10.0,North,4.6,-,N/A,,Overcast,350,2012-11-06 13:56:00
8:36 AM,51.8,48.2,88,30.00,10.0,North,11.5,18.4,N/A,,Mostly Cloudy,360,2012-11-06 14:36:00
8:56 AM,52.0,48.0,86,30.01,10.0,North,6.9,-,N/A,,Mostly Cloudy,360,2012-11-06 14:56:00
9:53 AM,55.4,48.2,77,29.98,10.0,NW,9.2,-,N/A,,Scattered Clouds,320,2012-11-06 15:53:00
9:56 AM,55.9,48.9,77,29.99,10.0,NW,9.2,-,N/A,,Scattered Clouds,320,2012-11-06 15:56:00
10:56 AM,60.1,48.0,64,29.98,10.0,NNW,11.5,-,N/A,,Partly Cloudy,340,2012-11-06 16:56:00
11:56 AM,64.0,48.9,58,29.96,10.0,NNW,12.7,17.3,N/A,,Partly Cloudy,340,2012-11-06 17:56:00
12:56 PM,64.9,48.0,54,29.93,10.0,North,9.2,-,N/A,,Partly Cloudy,350,2012-11-06 18:56:00
1:56 PM,64.9,48.0,54,29.93,10.0,WNW,9.2,-,N/A,,Partly Cloudy,290,2012-11-06 19:56:00
2:56 PM,64.9,46.9,52,29.95,10.0,North,11.5,18.4,N/A,,Scattered Clouds,350,2012-11-06 20:56:00
3:56 PM,61.0,46.9,60,29.95,10.0,NNW,10.4,18.4,N/A,,Scattered Clouds,330,2012-11-06 21:56:00
4:56 PM,57.0,46.0,67,29.96,10.0,North,5.8,-,N/A,,Partly Cloudy,350,2012-11-06 22:56:00
5:56 PM,54.0,46.0,75,29.98,10.0,North,4.6,-,N/A,,Partly Cloudy,350,2012-11-06 23:56:00
6:56 PM,53.1,46.0,77,30.01,10.0,NNW,5.8,-,N/A,,Partly Cloudy,340,2012-11-07 00:56:00
7:56 PM,51.1,46.9,86,30.03,10.0,NW,3.5,-,N/A,,Clear,320,2012-11-07 01:56:00
8:56 PM,50.0,46.0,86,30.03,10.0,WNW,3.5,-,N/A,,Clear,300,2012-11-07 02:56:00
9:56 PM,50.0,45.0,83,30.03,10.0,NW,5.8,-,N/A,,Clear,320,2012-11-07 03:56:00
10:56 PM,48.9,46.0,90,30.02,10.0,NW,5.8,-,N/A,,Clear,320,2012-11-07 04:56:00
11:56 PM,48.9,46.0,90,30.02,10.0,NW,3.5,-,N/A,,Clear,310,2012-11-07 05:56:00